Torna al catalogo

STARLINK-1166

AttivoComunicazioniVLEO
NORAD 45060·PAYLOAD·🇺🇸 United States

Lanciato Jan 29, 2020 da Cape Canaveral Space Force Station

Loading…

Prossimi Passaggi (prossime 24 ore)

TLE

AggiornatoSource: CelesTrak SupGP

Epoca: Sep 14, 2026, 21:32 UTC

1 45060C 20006S   26257.89770833  .00130370  00000+0  74068-3 0  2578
2 45060  53.0372  68.7441 0002622 286.6312  93.1216 15.78239923    19

Traccia STARLINK-1166 in tempo reale con AllMySat

Download on the App Store